Location: Truman State University Observatory
(40.1787°N, 92.6006°W)
Time: 08:15:26
(UTC-05:00)

N. Korean satellite - Visible Passes

Search period start: 25 September 2017 00:00
Search period end: 05 October 2017 00:00
Orbit: 461 x 516 km, 97.2° (Epoch: 24 September)

Date Brightness Start Highest point End Pass type
(mag) Time Alt. Az. Time Alt. Az. Time Alt. Az.
25 Sep 7.6 19:33:00 10° S 19:36:40 52° W 19:40:18 10° NNW visible
27 Sep 10.0 20:22:01 10° WSW 20:23:56 14° W 20:25:51 10° WNW visible
28 Sep 9.1 19:57:26 10° SSW 20:00:34 25° W 20:03:41 10° NW visible
29 Sep 7.7 19:33:39 10° S 19:37:16 50° W 19:40:52 10° NNW visible
01 Oct 10.0 20:22:45 10° WSW 20:24:32 13° W 20:26:17 10° WNW visible
02 Oct 9.2 19:58:04 10° SSW 20:01:09 24° W 20:04:11 10° NW visible
03 Oct 7.7 19:34:15 10° S 19:37:49 49° W 19:41:22 10° NNW visible
04 Oct 6.5 19:10:54 10° SSE 19:14:34 79° ENE 19:18:12 10° N visible
